| time (UTC) | temp F | wind direction | speed MPH | gust MPH | rain 1hr in | rain 24hr in | rain mn in | humidity % | barometer mb |
| 20260502205637 | 54 | 36 | 5.0 | 10.0 | 0.00 | 0.01 | 0.01 | 70 | 999.2 |
| 20260502204737 | 53 | 35 | 11.0 | 17.0 | 0.00 | 0.01 | 0.01 | 72 | 999.2 |
| 20260502202937 | 53 | 36 | 9.0 | 15.0 | 0.00 | 0.01 | 0.01 | 72 | 999.4 |
| 20260502202036 | 52 | 36 | 10.0 | 16.0 | 0.00 | 0.01 | 0.01 | 73 | 999.5 |
| 20260502201136 | 52 | 33 | 11.0 | 16.0 | 0.00 | 0.01 | 0.01 | 74 | 999.6 |
| 20260502195336 | 52 | 34 | 14.0 | 19.0 | 0.00 | 0.01 | 0.01 | 75 | 999.8 |
| 20260502194436 | 53 | 29 | 13.0 | 19.0 | 0.00 | 0.01 | 0.01 | 75 | 999.8 |
| 20260502193536 | 53 | 19 | 12.0 | 19.0 | 0.00 | 0.01 | 0.01 | 75 | 999.8 |
| 20260502191736 | 54 | 303 | 9.0 | 16.0 | 0.00 | 0.01 | 0.01 | 65 | 1000.0 |
| 20260502190836 | 54 | 289 | 8.0 | 14.0 | 0.00 | 0.01 | 0.01 | 66 | 1000.2 |
| 20260502185936 | 54 | 285 | 9.0 | 13.0 | 0.00 | 0.01 | 0.01 | 71 | 1000.3 |
| 20260502185036 | 54 | 293 | 8.0 | 13.0 | 0.00 | 0.01 | 0.01 | 70 | 1000.2 |
| 20260502184136 | 53 | 308 | 11.0 | 15.0 | 0.00 | 0.01 | 0.01 | 71 | 1000.3 |
| 20260502183236 | 55 | 293 | 8.0 | 15.0 | 0.00 | 0.01 | 0.01 | 67 | 1000.4 |
| 20260502182336 | 54 | 292 | 8.0 | 16.0 | 0.00 | 0.01 | 0.01 | 66 | 1000.3 |
| 20260502180536 | 54 | 300 | 6.0 | 12.0 | 0.00 | 0.01 | 0.01 | 69 | 1000.3 |
| 20260502170236 | 53 | 300 | 5.0 | 8.0 | 0.00 | 0.01 | 0.01 | 72 | 1000.9 |
| 20260502163536 | 53 | 268 | 2.0 | 5.0 | 0.00 | 0.01 | 0.01 | 72 | 1000.8 |
| 20260502162636 | 52 | 292 | 3.0 | 6.0 | 0.00 | 0.01 | 0.01 | 73 | 1000.8 |
| 20260502160836 | 53 | 278 | 1.0 | 4.0 | 0.00 | 0.01 | 0.01 | 73 | 1001.2 |
| 20260502152336 | 52 | 21 | 2.0 | 6.0 | 0.00 | 0.01 | 0.01 | 76 | 1001.3 |
| 20260502151435 | 51 | 35 | 5.0 | 11.0 | 0.00 | 0.01 | 0.01 | 77 | 1001.4 |
| 20260502150535 | 51 | 37 | 4.0 | 8.0 | 0.00 | 0.01 | 0.01 | 77 | 1001.4 |
| 20260502123235 | 50 | 277 | 2.0 | 5.0 | 0.00 | 0.01 | 0.01 | 90 | 1001.4 |
| 20260502122335 | 50 | 279 | 3.0 | 6.0 | 0.00 | 0.01 | 0.01 | 90 | 1001.6 |
| 20260502121435 | 50 | 221 | 2.0 | 6.0 | 0.00 | 0.01 | 0.01 | 89 | 1001.5 |
| 20260502120535 | 50 | 195 | 2.0 | 6.0 | 0.01 | 0.01 | 0.01 | 88 | 1001.2 |
| 20260502115635 | 50 | 303 | 1.0 | 4.0 | 0.01 | 0.01 | 0.01 | 89 | 1001.2 |
| 20260502114735 | 50 | 103 | 2.0 | 3.0 | 0.01 | 0.01 | 0.01 | 88 | 1001.2 |
| 20260502113835 | 50 | 60 | 2.0 | 4.0 | 0.01 | 0.01 | 0.01 | 88 | 1000.9 |
| 20260502112935 | 49 | 194 | 2.0 | 5.0 | 0.01 | 0.01 | 0.01 | 89 | 1000.9 |
| 20260502112035 | 49 | 227 | 2.0 | 5.0 | 0.01 | 0.01 | 0.01 | 89 | 1001.4 |
| 20260502111134 | 49 | 285 | 6.0 | 12.0 | 0.00 | 0.00 | 0.00 | 90 | 1001.4 |
| 20260502110234 | 49 | 279 | 7.0 | 12.0 | 0.00 | 0.00 | 0.00 | 89 | 1001.8 |
| 20260502105334 | 49 | 287 | 5.0 | 9.0 | 0.00 | 0.00 | 0.00 | 89 | 1001.4 |
| 20260502104434 | 49 | 257 | 4.0 | 8.0 | 0.00 | 0.00 | 0.00 | 87 | 1001.3 |
| 20260502103534 | 49 | 236 | 5.0 | 9.0 | 0.00 | 0.00 | 0.00 | 88 | 1001.3 |
| 20260502101734 | 49 | 220 | 6.0 | 12.0 | 0.00 | 0.00 | 0.00 | 90 | 1001.0 |
| 20260502091434 | 49 | 208 | 6.0 | 12.0 | 0.00 | 0.00 | 0.00 | 89 | 1000.6 |
| 20260502070834 | 49 | 222 | 8.0 | 16.0 | 0.00 | 0.00 | 0.00 | 88 | 1000.9 |
| 20260502065934 | 49 | 211 | 7.0 | 15.0 | 0.00 | 0.00 | 0.00 | 87 | 1001.0 |
| 20260502065034 | 49 | 214 | 7.0 | 15.0 | 0.00 | 0.00 | 0.00 | 87 | 1000.9 |
| 20260502064133 | 49 | 214 | 8.0 | 16.0 | 0.00 | 0.00 | 0.00 | 87 | 1000.9 |
| 20260502062333 | 49 | 209 | 9.0 | 17.0 | 0.00 | 0.00 | 0.00 | 85 | 1001.4 |
| 20260502061433 | 49 | 203 | 7.0 | 15.0 | 0.00 | 0.00 | 0.00 | 84 | 1001.1 |
| 20260502060533 | 50 | 197 | 6.0 | 15.0 | 0.00 | 0.00 | 0.00 | 84 | 1001.1 |
| 20260502055633 | 50 | 198 | 6.0 | 13.0 | 0.00 | 0.00 | 0.00 | 83 | 1001.1 |
| 20260502054733 | 50 | 204 | 6.0 | 14.0 | 0.00 | 0.00 | 0.00 | 82 | 1001.0 |
| 20260502053833 | 50 | 202 | 6.0 | 12.0 | 0.00 | 0.00 | 0.00 | 81 | 1001.0 |
| 20260502052033 | 50 | 207 | 6.0 | 13.0 | 0.00 | 0.00 | 0.00 | 79 | 1001.2 |
| 20260502044433 | 50 | 217 | 10.0 | 18.0 | 0.00 | 0.00 | 0.00 | 79 | 1001.4 |
| 20260502043533 | 50 | 218 | 10.0 | 19.0 | 0.00 | 0.00 | 0.00 | 80 | 1001.5 |
| 20260502042633 | 50 | 209 | 8.0 | 17.0 | 0.00 | 0.00 | 0.00 | 80 | 1001.4 |
| 20260502041733 | 50 | 210 | 8.0 | 16.0 | 0.00 | 0.00 | 0.00 | 80 | 1001.4 |
| 20260502040833 | 49 | 206 | 7.0 | 17.0 | 0.00 | 0.00 | 0.00 | 80 | 1001.3 |
| 20260502035933 | 49 | 207 | 7.0 | 16.0 | 0.00 | 0.00 | 0.00 | 80 | 1001.3 |
| 20260502035033 | 49 | 214 | 8.0 | 16.0 | 0.00 | 0.00 | 0.00 | 80 | 1001.3 |
| 20260502034133 | 49 | 212 | 9.0 | 20.0 | 0.00 | 0.00 | 0.00 | 79 | 1001.2 |
| 20260502033233 | 49 | 217 | 8.0 | 18.0 | 0.00 | 0.00 | 0.00 | 80 | 1001.4 |
| 20260502032333 | 49 | 210 | 8.0 | 16.0 | 0.00 | 0.00 | 0.00 | 80 | 1001.6 |
| 20260502025633 | 49 | 205 | 8.0 | 18.0 | 0.00 | 0.00 | 0.00 | 78 | 1001.5 |
| 20260502024733 | 49 | 206 | 9.0 | 19.0 | 0.00 | 0.00 | 0.00 | 78 | 1001.5 |
| 20260502022932 | 50 | 204 | 8.0 | 18.0 | 0.00 | 0.00 | 0.00 | 77 | 1001.5 |
| 20260502022032 | 50 | 207 | 8.0 | 15.0 | 0.00 | 0.00 | 0.00 | 76 | 1001.5 |
| 20260502021132 | 50 | 205 | 8.0 | 21.0 | 0.00 | 0.00 | 0.00 | 76 | 1001.5 |
| 20260502015332 | 50 | 214 | 9.0 | 18.0 | 0.00 | 0.00 | 0.00 | 75 | 1001.6 |
| 20260502014432 | 50 | 212 | 8.0 | 18.0 | 0.00 | 0.00 | 0.00 | 74 | 1001.4 |
| 20260502013532 | 50 | 214 | 7.0 | 15.0 | 0.00 | 0.00 | 0.00 | 73 | 1001.4 |
| 20260502012632 | 51 | 202 | 7.0 | 14.0 | 0.00 | 0.00 | 0.00 | 74 | 1001.3 |
| 20260502011732 | 51 | 212 | 7.0 | 16.0 | 0.00 | 0.00 | 0.00 | 73 | 1001.3 |
| 20260502010832 | 51 | 204 | 8.0 | 17.0 | 0.00 | 0.00 | 0.00 | 74 | 1001.2 |
| 20260502004132 | 51 | 210 | 7.0 | 16.0 | 0.00 | 0.00 | 0.00 | 74 | 1001.1 |
| 20260502003232 | 51 | 191 | 7.0 | 16.0 | 0.00 | 0.00 | 0.00 | 73 | 1001.1 |
| 20260502002332 | 51 | 205 | 7.0 | 18.0 | 0.00 | 0.00 | 0.00 | 72 | 1001.0 |
| 20260502001432 | 51 | 199 | 8.0 | 17.0 | 0.00 | 0.00 | 0.00 | 72 | 1000.9 |
| 20260502000532 | 51 | 213 | 9.0 | 20.0 | 0.00 | 0.00 | 0.00 | 71 | 1000.8 |
| 20260501235632 | 51 | 210 | 9.0 | 19.0 | 0.00 | 0.00 | 0.00 | 70 | 1000.8 |
| 20260501234731 | 51 | 208 | 9.0 | 20.0 | 0.00 | 0.00 | 0.00 | 69 | 1000.6 |
| 20260501233832 | 52 | 210 | 9.0 | 20.0 | 0.00 | 0.00 | 0.00 | 68 | 1000.5 |
| 20260501232931 | 52 | 211 | 8.0 | 18.0 | 0.00 | 0.00 | 0.00 | 68 | 1000.3 |
| 20260501232031 | 53 | 216 | 9.0 | 17.0 | 0.00 | 0.00 | 0.00 | 67 | 1000.3 |
| 20260501231131 | 53 | 203 | 8.0 | 19.0 | 0.00 | 0.00 | 0.00 | 65 | 1000.3 |
| 20260501230231 | 53 | 223 | 12.0 | 23.0 | 0.00 | 0.00 | 0.00 | 65 | 1000.2 |
| 20260501225331 | 54 | 211 | 11.0 | 19.0 | 0.00 | 0.00 | 0.00 | 63 | 1000.1 |
| 20260501224431 | 54 | 216 | 12.0 | 20.0 | 0.00 | 0.00 | 0.00 | 62 | 1000.2 |
| 20260501223531 | 55 | 213 | 10.0 | 22.0 | 0.00 | 0.00 | 0.00 | 60 | 1000.0 |
| 20260501222631 | 55 | 212 | 9.0 | 19.0 | 0.00 | 0.00 | 0.00 | 59 | 1000.1 |
| 20260501221731 | 55 | 214 | 10.0 | 21.0 | 0.00 | 0.00 | 0.00 | 59 | 1000.2 |
| 20260501220831 | 56 | 200 | 8.0 | 18.0 | 0.00 | 0.00 | 0.00 | 59 | 1000.0 |
| 20260501214131 | 58 | 228 | 10.0 | 20.0 | 0.00 | 0.00 | 0.00 | 55 | 1000.0 |
| 20260501213231 | 58 | 219 | 12.0 | 23.0 | 0.00 | 0.00 | 0.00 | 56 | 999.9 |
| 20260501212331 | 59 | 221 | 10.0 | 23.0 | 0.00 | 0.00 | 0.00 | 54 | 999.8 |
| 20260501210531 | 61 | 287 | 6.0 | 14.0 | 0.00 | 0.00 | 0.00 | 47 | 999.8 |